DC1NF-7 Weather Reports


Display with metric or nautical units.
time (UTC)temp
F
wind
direction
speed
MPH
gust
MPH
rain 1hr
in
rain 24hr
in
rain mn
in
humidity
%
barometer
mb
20260507174608 52 222 1.0 2.0 0.00 0.20 0.13 83 1015.7
20260507173605 52 209 1.0 4.0 0.00 0.20 0.13 84 1015.7
20260507172601 52 240 1.0 2.0 0.00 0.20 0.13 84 1015.5
20260507171555 52 251 2.0 4.0 0.00 0.20 0.13 83 1015.4
20260507170558 52 262 1.0 4.0 0.00 0.20 0.13 84 1015.4
20260507165546 52 242 3.0 6.0 0.00 0.20 0.13 84 1015.4
20260507164546 52 203 2.0 4.0 0.00 0.20 0.13 85 1015.4
20260507163539 52 250 2.0 6.0 0.00 0.20 0.13 84 1015.4
20260507162536 52 242 3.0 8.0 0.00 0.20 0.13 83 1015.3
20260507161536 52 243 3.0 8.0 0.00 0.20 0.13 83 1015.3
20260507160529 53 250 4.0 9.0 0.00 0.20 0.13 81 1015.4
20260507155526 53 279 3.0 7.0 0.00 0.20 0.13 80 1015.2
20260507154523 53 214 3.0 7.0 0.00 0.20 0.13 79 1015.1
20260507153519 53 229 2.0 4.0 0.00 0.20 0.13 81 1015.1
20260507152518 53 233 4.0 11.0 0.00 0.20 0.13 80 1015.0
20260507151614 53 213 3.0 4.0 0.00 0.20 0.13 80 1015.0
20260507150613 54 245 4.0 8.0 0.00 0.20 0.13 78 1015.0
20260507145604 53 198 1.0 4.0 0.00 0.20 0.13 80 1015.0
20260507144601 53 203 2.0 4.0 0.00 0.20 0.13 81 1015.0
20260507143600 53 224 2.0 6.0 0.00 0.20 0.13 80 1014.9
20260507142553 54 210 3.0 6.0 0.00 0.20 0.13 79 1015.1
20260507141549 54 205 4.0 9.0 0.00 0.20 0.13 77 1014.9
20260507140544 54 240 3.0 7.0 0.00 0.20 0.13 77 1014.8
20260507135540 54 233 4.0 11.0 0.00 0.20 0.13 77 1014.9
20260507134538 54 258 5.0 11.0 0.00 0.20 0.13 77 1014.9
20260507133533 54 233 6.0 9.0 0.00 0.20 0.13 78 1014.9
20260507132532 53 237 3.0 8.0 0.00 0.20 0.13 82 1014.8
20260507131526 52 267 4.0 7.0 0.00 0.20 0.13 84 1014.8
20260507130525 51 256 2.0 7.0 0.00 0.20 0.13 86 1014.8
20260507125521 52 229 4.0 8.0 0.00 0.20 0.13 85 1014.9
20260507124614 52 239 4.0 9.0 0.00 0.20 0.13 87 1014.7
20260507123610 51 233 3.0 7.0 0.00 0.20 0.13 88 1014.6
20260507122611 51 245 2.0 8.0 0.00 0.20 0.13 89 1014.5
20260507121604 51 175 3.0 6.0 0.00 0.20 0.13 90 1014.4
20260507120601 51 236 5.0 8.0 0.00 0.20 0.13 90 1014.4
20260507115601 51 235 5.0 11.0 0.00 0.20 0.13 89 1014.4
20260507114554 52 246 4.0 9.0 0.00 0.20 0.13 89 1014.3
20260507113553 51 225 5.0 9.0 0.00 0.20 0.13 90 1014.3
20260507112546 51 224 4.0 8.0 0.00 0.20 0.13 93 1014.1
20260507111550 51 257 5.0 9.0 0.00 0.20 0.13 92 1014.1
20260507110538 52 251 5.0 11.0 0.00 0.20 0.13 89 1014.1
20260507105535 51 221 3.0 7.0 0.00 0.20 0.13 91 1014.0
20260507104532 51 242 5.0 11.0 0.00 0.20 0.13 91 1014.0
20260507103528 51 244 4.0 9.0 0.00 0.20 0.13 91 1013.9
20260507102524 51 232 3.0 6.0 0.00 0.20 0.13 92 1013.9
20260507101523 51 218 5.0 9.0 0.00 0.20 0.13 93 1013.8
20260507100515 51 253 5.0 11.0 0.00 0.20 0.13 92 1013.7
20260507095614 51 231 4.0 9.0 0.00 0.20 0.13 92 1013.7
20260507094607 51 200 4.0 8.0 0.00 0.20 0.13 92 1013.4
20260507093607 52 234 4.0 8.0 0.01 0.20 0.13 91 1013.4
20260507092601 52 208 3.0 6.0 0.01 0.20 0.13 90 1013.2
20260507091558 51 235 3.0 6.0 0.01 0.20 0.13 90 1013.3
20260507090553 51 232 4.0 8.0 0.01 0.20 0.13 92 1013.1
20260507085549 51 243 2.0 4.0 0.01 0.20 0.13 94 1013.0
20260507084545 50 249 2.0 4.0 0.01 0.20 0.13 94 1012.9
20260507083545 51 251 4.0 6.0 0.00 0.19 0.12 93 1012.7
20260507082541 51 225 4.0 7.0 0.00 0.19 0.12 90 1012.6
20260507081538 51 243 2.0 6.0 0.00 0.19 0.12 89 1012.4
20260507080532 51 250 3.0 4.0 0.00 0.19 0.12 91 1012.3
20260507075529 51 249 4.0 7.0 0.00 0.19 0.12 90 1012.3
20260507074529 51 273 3.0 8.0 0.00 0.19 0.12 90 1012.2
20260507073525 51 230 3.0 7.0 0.00 0.19 0.12 89 1012.0
20260507072520 51 265 3.0 7.0 0.00 0.19 0.12 90 1011.9
20260507071613 51 223 4.0 6.0 0.01 0.19 0.12 90 1011.9
20260507070618 51 234 4.0 8.0 0.01 0.19 0.12 91 1011.8
20260507065607 51 236 4.0 7.0 0.01 0.19 0.12 91 1011.6
20260507064607 51 237 3.0 6.0 0.01 0.19 0.12 92 1011.5
20260507063603 51 240 4.0 8.0 0.01 0.19 0.12 93 1011.3
20260507062556 51 248 4.0 7.0 0.01 0.19 0.12 92 1011.3
20260507061551 51 241 4.0 8.0 0.00 0.18 0.11 94 1011.3
20260507060547 51 227 4.0 7.0 0.00 0.18 0.11 94 1011.1
20260507055546 51 242 3.0 7.0 0.01 0.18 0.11 94 1011.0
20260507054539 51 243 3.0 4.0 0.01 0.18 0.11 94 1010.8
20260507053538 51 254 4.0 7.0 0.01 0.18 0.11 94 1010.7
20260507052535 51 259 2.0 4.0 0.01 0.18 0.11 94 1010.8
20260507051532 50 242 3.0 7.0 0.01 0.18 0.11 95 1010.5
20260507050524 50 249 2.0 4.0 0.01 0.18 0.11 95 1010.4
20260507045520 50 224 3.0 6.0 0.00 0.17 0.09 95 1010.3
20260507044519 50 234 2.0 4.0 0.00 0.17 0.09 94 1010.3
20260507043616 50 241 2.0 6.0 0.00 0.17 0.09 94 1010.2
20260507042610 50 222 4.0 7.0 0.00 0.17 0.09 94 1010.1
20260507041609 50 231 3.0 8.0 0.00 0.17 0.09 94 1010.0
20260507040603 50 205 3.0 7.0 0.00 0.17 0.09 93 1009.9
20260507035603 50 206 2.0 7.0 0.00 0.17 0.09 93 1009.8
20260507034600 50 225 3.0 6.0 0.00 0.17 0.09 93 1009.7
20260507033557 50 253 3.0 6.0 0.00 0.17 0.09 93 1009.7
20260507032548 50 256 3.0 6.0 0.00 0.17 0.09 93 1009.6
20260507031544 50 214 2.0 4.0 0.00 0.17 0.09 94 1009.5
20260507030541 50 193 1.0 4.0 0.00 0.17 0.09 94 1009.5
20260507025538 50 231 2.0 4.0 0.00 0.17 0.09 93 1009.5
20260507024538 50 256 3.0 6.0 0.00 0.17 0.09 92 1009.4
20260507023534 50 243 3.0 6.0 0.00 0.17 0.09 91 1009.5
20260507022526 50 234 4.0 8.0 0.00 0.17 0.09 91 1009.5
20260507021522 50 260 5.0 11.0 0.00 0.17 0.09 91 1009.5
20260507020517 50 246 4.0 7.0 0.00 0.17 0.09 92 1009.3
20260507015617 51 221 2.0 4.0 0.00 0.17 0.09 93 1009.2
20260507014609 51 244 4.0 6.0 0.00 0.17 0.09 92 1009.2
20260507013606 51 237 4.0 7.0 0.00 0.17 0.09 92 1009.0
20260507012606 51 254 6.0 11.0 0.00 0.17 0.09 92 1009.0
20260507011600 51 236 5.0 11.0 0.01 0.17 0.09 94 1009.0
20260507010556 51 251 3.0 8.0 0.02 0.17 0.09 94 1009.0
20260507005552 51 236 4.0 7.0 0.02 0.17 0.09 94 1009.1
20260507004547 52 230 4.0 8.0 0.04 0.17 0.09 94 1009.0
20260507003544 52 240 4.0 11.0 0.06 0.17 0.09 95 1008.9
20260507002544 52 213 5.0 9.0 0.07 0.17 0.09 95 1008.9
20260507001538 52 222 3.0 7.0 0.07 0.15 0.08 97 1009.0
20260507000538 52 180 2.0 4.0 0.06 0.14 0.07 96 1008.9
20260506235539 52 199 3.0 7.0 0.06 0.14 0.07 96 1009.0
20260506234531 53 235 3.0 4.0 0.06 0.13 0.06 95 1009.0
20260506233527 53 212 3.0 8.0 0.04 0.11 0.04 95 1008.8
20260506232520 53 216 4.0 7.0 0.02 0.09 0.02 95 1009.0
20260506231516 53 223 2.0 6.0 0.01 0.08 0.01 94 1008.8
20260506230612 53 244 3.0 7.0 0.01 0.08 0.01 94 1008.9
20260506225613 53 244 2.0 6.0 0.01 0.08 0.01 93 1008.7
20260506224606 53 248 4.0 6.0 0.00 0.07 0.00 91 1008.7
20260506223602 53 248 4.0 6.0 0.00 0.07 0.00 91 1008.6
20260506222601 53 254 4.0 9.0 0.00 0.07 0.00 91 1008.4
20260506221557 53 264 2.0 6.0 0.00 0.07 0.00 91 1008.4
20260506220552 53 255 4.0 9.0 0.00 0.07 0.00 91 1008.4
20260506215550 54 210 4.0 8.0 0.00 0.07 0.07 90 1008.4
20260506214541 54 256 3.0 7.0 0.00 0.07 0.07 90 1008.4
20260506213538 54 196 3.0 8.0 0.00 0.07 0.07 89 1008.4
20260506212537 54 237 4.0 8.0 0.00 0.07 0.07 89 1008.3
20260506211534 54 203 4.0 6.0 0.00 0.07 0.07 90 1008.2
20260506210530 54 207 2.0 4.0 0.00 0.07 0.07 92 1008.2
20260506205523 55 223 2.0 4.0 0.00 0.07 0.07 91 1008.1
20260506204518 55 247 5.0 11.0 0.01 0.07 0.07 89 1007.9
20260506203515 55 225 3.0 6.0 0.02 0.07 0.07 94 1007.9
20260506202613 55 215 1.0 4.0 0.04 0.07 0.07 94 1007.9
20260506201609 55 206 2.0 4.0 0.05 0.07 0.07 94 1007.8
20260506200609 55 176 1.0 4.0 0.06 0.07 0.07 94 1007.7
20260506195606 55 188 1.0 2.0 0.07 0.07 0.07 94 1007.7
20260506194600 55 183 2.0 4.0 0.06 0.06 0.06 93 1007.6
20260506193559 55 241 2.0 4.0 0.05 0.05 0.05 93 1007.4
20260506192552 56 210 1.0 4.0 0.04 0.04 0.04 92 1007.3
20260506191550 56 248 2.0 4.0 0.02 0.02 0.02 91 1007.2
20260506190546 57 184 2.0 4.0 0.01 0.01 0.01 89 1007.1
20260506185541 57 258 2.0 4.0 0.00 0.00 0.00 87 1006.8
20260506184537 57 231 2.0 4.0 0.00 0.00 0.00 87 1006.8
20260506183534 57 184 4.0 7.0 0.00 0.00 0.00 85 1006.6
20260506182529 58 222 4.0 7.0 0.00 0.00 0.00 83 1006.6
20260506181529 59 198 4.0 9.0 0.00 0.00 0.00 83 1006.5
20260506180520 59 185 3.0 4.0 0.00 0.00 0.00 82 1006.3
20260506175521 59 228 1.0 4.0 0.00 0.00 0.00 81 1006.0